| time (UTC) | temp C | wind direction | speed KPH | gust KPH | rain 1hr cm | rain 24hr cm | rain mn cm | humidity % | barometer mb |
| 20260505080016 | 13 | 89 | 0.0 | 1.6 | 0.00 | 1.30 | 0.94 | 89 | 1008.3 |
| 20260505074515 | 13 | 331 | 0.0 | 9.7 | 0.00 | 1.30 | 0.94 | 90 | 1008.4 |
| 20260505073014 | 13 | 333 | 0.0 | 6.4 | 0.00 | 1.30 | 0.94 | 91 | 1008.3 |
| 20260505071511 | 12 | 96 | 0.0 | 6.4 | 0.00 | 1.30 | 0.94 | 92 | 1008.3 |
| 20260505070010 | 12 | 84 | 0.0 | 0.0 | 0.00 | 1.42 | 0.94 | 92 | 1008.3 |
| 20260505064508 | 12 | 84 | 0.0 | 0.0 | 0.00 | 1.42 | 0.94 | 92 | 1008.2 |
| 20260505063011 | 12 | 84 | 0.0 | 0.0 | 0.00 | 1.42 | 0.94 | 93 | 1008.1 |
| 20260505061507 | 12 | 85 | 0.0 | 0.0 | 0.00 | 1.42 | 0.94 | 93 | 1008.3 |
| 20260505060005 | 12 | 86 | 0.0 | 0.0 | 0.00 | 1.73 | 0.94 | 93 | 1008.2 |
| 20260505054504 | 12 | 85 | 0.0 | 0.0 | 0.03 | 1.73 | 0.94 | 93 | 1008.2 |
| 20260505053002 | 12 | 86 | 0.0 | 0.0 | 0.03 | 1.73 | 0.94 | 93 | 1008.2 |
| 20260505051600 | 12 | 85 | 0.0 | 0.0 | 0.05 | 1.73 | 0.94 | 92 | 1008.2 |
| 20260505041604 | 12 | 85 | 0.0 | 0.0 | 0.05 | 1.83 | 0.89 | 92 | 1008.6 |
| 20260505040051 | 12 | 85 | 0.0 | 0.0 | 0.05 | 1.83 | 0.89 | 92 | 1008.7 |
| 20260505034551 | 12 | 86 | 0.0 | 0.0 | 0.05 | 1.98 | 0.86 | 92 | 1008.8 |
| 20260505033049 | 12 | 86 | 0.0 | 0.0 | 0.15 | 1.98 | 0.86 | 92 | 1008.9 |
| 20260505031550 | 12 | 87 | 0.0 | 0.0 | 0.20 | 1.96 | 0.84 | 92 | 1009.0 |
| 20260505030057 | 12 | 87 | 0.0 | 0.0 | 0.23 | 1.96 | 0.84 | 92 | 1009.2 |
| 20260505024545 | 12 | 87 | 0.0 | 0.0 | 0.20 | 1.93 | 0.79 | 92 | 1009.3 |
| 20260505023044 | 12 | 85 | 0.0 | 0.0 | 0.15 | 1.83 | 0.71 | 92 | 1009.4 |
| 20260505021552 | 12 | 85 | 0.0 | 0.0 | 0.10 | 1.75 | 0.64 | 92 | 1009.2 |
| 20260505020052 | 12 | 85 | 0.0 | 0.0 | 0.10 | 1.75 | 0.61 | 92 | 1009.3 |
| 20260505014540 | 12 | 84 | 0.0 | 0.0 | 0.08 | 1.73 | 0.61 | 92 | 1009.6 |
| 20260505013041 | 12 | 84 | 0.0 | 0.0 | 0.05 | 1.68 | 0.56 | 92 | 1009.6 |
| 20260505011538 | 12 | 83 | 0.0 | 0.0 | 0.05 | 1.65 | 0.53 | 92 | 1009.7 |
| 20260505010059 | 12 | 41 | 0.0 | 0.0 | 0.08 | 1.65 | 0.51 | 91 | 1009.9 |
| 20260505004535 | 12 | 41 | 0.0 | 0.0 | 0.15 | 1.65 | 0.51 | 91 | 1010.0 |
| 20260505003045 | 12 | 41 | 0.0 | 0.0 | 0.15 | 1.65 | 0.51 | 91 | 1010.0 |
| 20260505001538 | 12 | 41 | 0.0 | 0.0 | 0.23 | 1.63 | 0.51 | 91 | 1010.1 |
| 20260505000037 | 12 | 41 | 0.0 | 0.0 | 0.28 | 1.55 | 0.43 | 91 | 1010.3 |
| 20260504234530 | 12 | 36 | 0.0 | 0.0 | 0.28 | 1.50 | 0.38 | 91 | 1010.4 |
| 20260504233029 | 12 | 32 | 0.0 | 0.0 | 0.30 | 1.45 | 0.36 | 90 | 1010.5 |
| 20260504231532 | 12 | 26 | 0.0 | 0.0 | 0.23 | 1.37 | 0.25 | 90 | 1010.6 |
| 20260504230025 | 12 | 16 | 0.0 | 0.0 | 0.15 | 1.27 | 0.15 | 90 | 1010.6 |
| 20260504224530 | 12 | 16 | 0.0 | 0.0 | 0.15 | 1.22 | 0.10 | 90 | 1010.6 |
| 20260504223025 | 12 | 16 | 0.0 | 0.0 | 0.10 | 1.17 | 0.05 | 89 | 1010.6 |
| 20260504221524 | 12 | 15 | 0.0 | 0.0 | 0.05 | 1.14 | 0.03 | 89 | 1010.7 |
| 20260504220019 | 12 | 21 | 0.0 | 0.0 | 0.05 | 1.12 | 1.12 | 88 | 1010.9 |
| 20260504214533 | 12 | 53 | 0.0 | 0.0 | 0.00 | 1.09 | 1.09 | 87 | 1010.9 |
| 20260504213017 | 12 | 53 | 0.0 | 0.0 | 0.00 | 1.09 | 1.09 | 87 | 1011.0 |
| 20260504211521 | 12 | 60 | 0.0 | 0.0 | 0.00 | 1.09 | 1.09 | 87 | 1011.0 |
| 20260504210019 | 12 | 59 | 0.0 | 0.0 | 0.00 | 1.09 | 1.09 | 87 | 1011.0 |
| 20260504204516 | 12 | 316 | 0.0 | 0.0 | 0.00 | 1.09 | 1.09 | 87 | 1011.0 |
| 20260504203018 | 12 | 316 | 0.0 | 0.0 | 0.00 | 1.09 | 1.09 | 86 | 1011.1 |
| 20260504201516 | 12 | 316 | 0.0 | 0.0 | 0.00 | 1.09 | 1.09 | 86 | 1011.2 |
| 20260504200018 | 12 | 316 | 0.0 | 0.0 | 0.00 | 1.09 | 1.09 | 86 | 1011.0 |
| 20260504194513 | 13 | 316 | 0.0 | 0.0 | 0.00 | 1.09 | 1.09 | 85 | 1011.1 |
| 20260504193012 | 13 | 37 | 0.0 | 0.0 | 0.00 | 1.09 | 1.09 | 86 | 1011.1 |
| 20260504191514 | 13 | 37 | 0.0 | 0.0 | 0.00 | 1.09 | 1.09 | 85 | 1011.2 |
| 20260504190012 | 13 | 28 | 0.0 | 0.0 | 0.00 | 1.09 | 1.09 | 85 | 1011.1 |
| 20260504184510 | 13 | 69 | 0.0 | 0.0 | 0.00 | 1.09 | 1.09 | 86 | 1011.1 |
| 20260504183010 | 13 | 69 | 0.0 | 0.0 | 0.00 | 1.09 | 1.09 | 86 | 1011.2 |
| 20260504181508 | 13 | 60 | 0.0 | 0.0 | 0.00 | 1.09 | 1.09 | 86 | 1011.3 |
| 20260504180008 | 13 | 105 | 0.0 | 0.0 | 0.00 | 1.09 | 1.09 | 86 | 1011.3 |
| 20260504174506 | 13 | 115 | 0.0 | 0.0 | 0.00 | 1.09 | 1.09 | 87 | 1011.3 |
| 20260504173005 | 13 | 67 | 0.0 | 0.0 | 0.00 | 1.09 | 1.09 | 87 | 1011.3 |
| 20260504171505 | 13 | 98 | 0.0 | 8.0 | 0.00 | 1.09 | 1.09 | 86 | 1011.5 |
| 20260504160105 | 13 | 234 | 0.0 | 9.7 | 0.00 | 1.09 | 1.09 | 85 | 1012.0 |
| 20260504120106 | 12 | 75 | 0.0 | 3.2 | 0.15 | 0.91 | 0.91 | 88 | 1013.5 |
| 20260504081538 | 12 | 90 | 0.0 | 3.2 | 0.00 | 0.81 | 0.76 | 87 | 1013.7 |